Temp
15 15 15 17 16 16 17 17 16 17 17 17 17 17 17 17 16 16 15 14 13 13 12 12 10 10 10 12 12 12 12 12 12 11 11 11 11 10 10 8 10 9 9 9
16 14 16 16 16 17 17 16 17 17 17 17 18 18 18 17 17 16 16 15 14 13 13 12 11 10 10 10 12 12 12 12 11 11 11 11 10 10 8 7 7 9 9 8
14 16 16 16 17 16 17 18 17 18 18 18 17 16 18 17 17 17 16 16 16 14 14 13 12 11 10 10 11 11 11 11 11 11 10 10 10 9 7 7 7 7 9 9
16 16 16 16 17 17 15 17 17 18 18 18 18 15 15 17 18 16 16 16 16 15 14 13 12 11 11 10 10 11 11 11 10 10 10 10 10 9 8 7 7 7 8 8
14 17 17 17 17 16 18 17 17 18 19 18 18 21 18 17 18 17 17 16 15 15 15 15 13 12 11 11 10 10 11 10 10 10 9 9 9 9 7 7 7 7 7 8
17 17 16 17 17 17 17 17 18 19 21 20 19 20 19 18 18 17 16 15 15 14 14 15 14 13 12 11 10 10 11 11 10 10 9 9 8 8 8 8 8 8 8 8
18 18 17 17 17 17 18 19 21 21 23 23 20 20 20 18 16 15 14 14 15 14 13 14 13 13 12 11 11 10 10 11 10 9 9 8 9 8 8 8 8 7 7 8
19 18 18 17 17 18 18 18 20 20 22 22 20 20 20 18 17 16 15 14 13 14 13 13 13 13 12 11 10 11 11 11 10 9 8 9 8 9 9 8 8 7 7 8
20 20 18 17 17 17 18 18 19 19 20 22 22 21 20 19 18 17 16 15 15 13 12 12 12 12 12 11 11 11 11 11 11 10 8 8 8 8 7 8 7 7 7 7
18 18 19 18 17 17 17 18 18 20 20 20 21 20 21 18 18 16 16 15 14 13 12 14 13 13 13 12 12 11 11 11 11 10 8 9 8 7 6 7 6 7 7 8
18 19 19 18 19 19 18 18 18 19 19 20 21 21 19 17 16 16 15 15 13 13 11 13 13 13 13 13 12 12 11 11 11 12 12 9 8 7 8 8 9 8 7 7
18 18 19 19 19 18 18 18 18 19 19 20 19 19 18 17 16 16 15 14 12 12 13 13 13 13 12 12 12 12 12 11 11 11 10 9 8 8 9 10 10 8 7 7
17 18 19 20 20 19 17 18 18 18 18 19 19 19 19 17 16 16 15 13 12 11 12 12 13 13 12 12 12 12 12 12 11 11 11 10 10 9 9 9 10 9 8 8
15 16 17 19 19 18 18 18 18 18 18 18 18 18 18 17 16 15 14 12 11 11 12 12 12 12 12 11 12 12 12 12 12 11 11 11 10 9 8 9 9 9 9 8
15 16 17 17 17 17 18 17 17 17 17 17 17 17 17 16 14 13 13 11 10 11 12 12 12 11 11 11 11 12 12 12 12 12 11 10 10 10 9 9 9 8 8 8
15 16 16 16 16 16 17 17 17 17 17 17 17 16 16 15 14 13 12 11 10 10 11 11 11 11 10 11 11 11 11 12 12 11 11 10 10 9 9 9 9 8 8 8
15 16 15 16 16 17 17 17 17 17 17 16 16 16 15 14 12 11 11 10 9 9 10 10 10 10 10 10 11 11 11 11 10 10 10 10 10 9 9 9 9 8 8 7
15 14 14 15 15 17 17 17 15 15 15 15 15 14 13 12 11 10 11 9 8 9 9 10 10 10 10 10 10 10 10 10 10 10 10 9 9 9 9 8 8 7 7 6
15 15 15 15 16 17 17 17 15 15 14 13 13 12 11 11 10 10 10 9 9 9 8 9 9 9 9 9 9 9 9 8 8 8 7 8 7 8 8 7 7 6 6 6
14 14 14 15 16 17 16 15 13 13 13 12 11 11 10 10 10 11 9 9 9 8 9 7 9 9 9 8 8 8 8 8 7 7 7 7 7 7 7 6 6 6 6 5
14 13 14 15 15 15 15 14 12 12 13 10 10 10 9 9 9 8 8 8 8 8 8 7 9 9 9 8 7 7 7 7 7 7 7 6 6 7 7 6 6 6 5 5
15 15 15 15 15 15 14 12 12 12 10 10 10 9 9 8 8 8 7 7 8 8 7 8 8 7 8 7 7 7 7 7 7 7 7 7 7 7 7 7 6 6 6 5
14 14 14 14 15 13 12 11 11 10 9 9 9 9 8 8 8 7 7 6 7 7 6 7 7 7 7 7 7 7 7 7 7 7 7 7 7 7 7 7 7 6 6 5
13 13 12 12 12 12 12 11 10 9 9 9 8 8 8 7 7 7 7 6 7 7 7 7 7 7 7 7 7 7 7 7 7 7 6 7 7 7 6 6 6 6 6 5
13 12 12 11 10 10 10 10 9 9 8 8 8 7 7 7 6 6 6 7 6 7 7 7 7 7 7 7 7 7 6 6 6 6 6 6 6 6 6 6 6 4 2 1
12 12 11 11 11 10 10 9 8 8 7 7 7 7 7 7 6 6 7 6 6 6 5 6 6 7 6 6 6 6 6 5 5 5 6 4 2 2 4 2 4 5 4 5
Height
3193 3192 3189 3191 3189 3188 3185 3185 3186 3184 3184 3185 3185 3185 3185 3186 3186 3188 3189 3189 3192 3192 3194 3194 3192 3194 3193 3192 3192 3193 3193 3194 3197 3199 3201 3204 3206 3208 3210 3211 3212 3213 3215 3216
3192 3189 3190 3190 3190 3189 3188 3187 3183 3185 3184 3185 3183 3182 3182 3184 3185 3186 3187 3187 3188 3190 3192 3192 3191 3191 3191 3191 3191 3192 3192 3194 3195 3197 3199 3201 3204 3206 3208 3210 3208 3209 3211 3212
3185 3192 3191 3191 3191 3190 3188 3188 3186 3185 3183 3183 3182 3181 3181 3182 3185 3185 3185 3187 3187 3187 3188 3189 3189 3189 3189 3190 3189 3190 3192 3193 3194 3195 3196 3198 3199 3201 3205 3207 3207 3204 3206 3206
3196 3195 3195 3193 3191 3191 3191 3189 3187 3185 3180 3176 3179 3181 3180 3179 3182 3184 3184 3184 3185 3185 3186 3186 3185 3185 3187 3188 3187 3187 3189 3191 3192 3192 3194 3196 3197 3198 3200 3203 3204 3199 3201 3202
3193 3196 3196 3193 3191 3191 3190 3189 3187 3184 3178 3176 3179 3170 3176 3177 3183 3184 3183 3183 3182 3182 3183 3184 3182 3183 3182 3185 3186 3184 3185 3186 3188 3189 3190 3192 3193 3195 3198 3197 3195 3197 3197 3197
3198 3197 3196 3192 3192 3191 3189 3187 3183 3179 3171 3175 3176 3178 3178 3178 3182 3181 3181 3180 3178 3176 3178 3181 3182 3180 3180 3179 3180 3180 3180 3182 3184 3184 3186 3186 3188 3190 3191 3190 3193 3193 3191 3191
3194 3193 3192 3191 3190 3192 3187 3180 3174 3172 3165 3165 3175 3178 3174 3177 3180 3179 3178 3176 3174 3172 3174 3176 3177 3179 3174 3176 3175 3175 3173 3177 3178 3178 3179 3183 3183 3182 3183 3184 3187 3186 3185 3185
3186 3193 3190 3189 3191 3190 3189 3188 3179 3175 3168 3168 3173 3175 3174 3177 3178 3178 3178 3174 3172 3169 3171 3172 3174 3174 3176 3168 3165 3169 3168 3167 3169 3168 3156 3167 3174 3176 3176 3176 3177 3176 3175 3176
3186 3187 3188 3189 3190 3192 3190 3187 3183 3182 3176 3170 3167 3171 3173 3173 3176 3176 3175 3175 3174 3169 3166 3167 3169 3166 3165 3164 3160 3160 3162 3159 3160 3162 3157 3162 3168 3168 3171 3172 3171 3166 3168 3167
3189 3189 3187 3187 3189 3188 3189 3187 3185 3178 3174 3172 3169 3173 3169 3173 3174 3173 3174 3173 3170 3167 3160 3160 3160 3158 3157 3156 3154 3154 3155 3157 3158 3156 3152 3158 3162 3162 3166 3161 3166 3163 3165 3164
3190 3188 3186 3187 3184 3184 3185 3183 3181 3181 3180 3174 3168 3167 3167 3169 3172 3172 3171 3169 3164 3164 3158 3156 3154 3151 3151 3150 3149 3149 3150 3151 3150 3150 3149 3147 3155 3158 3162 3154 3157 3159 3161 3160
3189 3187 3183 3181 3181 3182 3183 3181 3180 3176 3175 3172 3170 3169 3168 3168 3169 3168 3167 3164 3159 3157 3154 3150 3148 3146 3144 3144 3145 3146 3145 3146 3145 3146 3147 3147 3149 3153 3155 3155 3157 3158 3159 3157
3189 3186 3182 3176 3174 3177 3180 3179 3178 3177 3175 3171 3170 3166 3165 3165 3165 3164 3162 3159 3156 3150 3148 3145 3141 3140 3138 3140 3139 3138 3141 3140 3140 3141 3141 3142 3145 3148 3149 3150 3150 3154 3154 3155
3187 3186 3184 3180 3175 3176 3175 3175 3175 3173 3171 3167 3164 3162 3162 3162 3160 3159 3156 3154 3151 3144 3141 3138 3136 3134 3134 3134 3133 3133 3136 3134 3134 3132 3133 3138 3141 3143 3144 3146 3146 3148 3149 3149
3184 3182 3180 3177 3176 3175 3172 3171 3170 3168 3167 3165 3161 3160 3160 3157 3154 3154 3152 3148 3145 3140 3137 3133 3131 3129 3128 3128 3128 3129 3130 3124 3127 3128 3129 3133 3136 3137 3141 3141 3142 3141 3142 3142
3180 3178 3177 3173 3172 3171 3167 3165 3163 3162 3161 3159 3158 3156 3156 3153 3151 3148 3147 3144 3142 3136 3134 3129 3128 3126 3124 3122 3121 3120 3123 3117 3119 3125 3127 3129 3132 3134 3136 3138 3137 3137 3138 3139
3177 3175 3174 3168 3168 3165 3161 3158 3156 3156 3155 3155 3153 3152 3151 3148 3145 3144 3143 3141 3136 3134 3129 3127 3125 3123 3121 3119 3118 3118 3119 3120 3119 3123 3125 3126 3127 3130 3130 3130 3133 3134 3134 3137
3171 3171 3170 3166 3165 3159 3152 3152 3153 3153 3153 3152 3151 3149 3147 3146 3143 3141 3139 3136 3133 3129 3125 3124 3123 3121 3120 3118 3118 3118 3118 3118 3119 3121 3121 3123 3122 3124 3126 3128 3128 3130 3130 3133
3166 3165 3164 3161 3157 3152 3151 3149 3149 3148 3149 3148 3146 3144 3144 3142 3140 3137 3132 3130 3128 3127 3124 3120 3120 3118 3116 3115 3115 3114 3114 3114 3116 3118 3119 3119 3118 3121 3122 3124 3126 3127 3128 3130
3160 3160 3160 3156 3152 3148 3148 3146 3144 3146 3145 3142 3142 3141 3139 3138 3137 3136 3127 3125 3124 3121 3119 3116 3116 3114 3113 3111 3111 3111 3111 3112 3113 3113 3114 3116 3118 3121 3121 3120 3122 3124 3125 3126
3154 3155 3153 3150 3147 3146 3145 3141 3140 3145 3146 3139 3139 3137 3135 3133 3131 3127 3122 3120 3118 3115 3114 3112 3110 3109 3108 3108 3108 3108 3109 3110 3110 3111 3112 3116 3117 3117 3118 3119 3120 3122 3122 3122
3148 3148 3146 3145 3143 3140 3139 3139 3141 3139 3136 3136 3134 3132 3129 3127 3124 3121 3118 3115 3113 3111 3111 3107 3106 3106 3105 3105 3105 3105 3106 3107 3109 3110 3112 3113 3113 3114 3115 3116 3117 3117 3118 3118
3142 3143 3141 3142 3138 3135 3134 3135 3135 3134 3131 3129 3128 3126 3124 3121 3119 3117 3113 3110 3109 3107 3106 3105 3104 3103 3102 3102 3103 3105 3106 3107 3108 3108 3109 3110 3111 3111 3112 3112 3113 3113 3114 3114
3137 3137 3135 3135 3134 3133 3132 3131 3129 3127 3125 3123 3122 3120 3118 3116 3113 3111 3109 3106 3103 3103 3103 3102 3101 3100 3100 3101 3102 3103 3104 3105 3106 3106 3106 3107 3107 3108 3109 3109 3110 3110 3110 3111
3132 3130 3129 3127 3128 3126 3125 3125 3122 3120 3119 3117 3116 3115 3113 3111 3107 3105 3103 3100 3100 3099 3099 3099 3098 3097 3098 3098 3100 3100 3102 3103 3104 3104 3104 3104 3104 3104 3104 3105 3105 3105 3106 3109
3125 3124 3123 3121 3122 3120 3118 3117 3115 3113 3111 3111 3110 3110 3108 3106 3102 3101 3098 3097 3096 3096 3097 3096 3096 3095 3095 3096 3097 3098 3099 3100 3101 3101 3100 3100 3102 3101 3101 3102 3102 3102 3103 3104
Wind_Speed
5 7 12 7 4 7 7 3 6 5 3 6 8 10 12 9 9 12 12 14 13 14 14 17 17 18 16 15 14 14 16 18 18 20 21 21 20 19 18 18 20 20 17 21
10 7 3 4 3 4 4 10 6 4 2 3 5 10 8 7 9 8 13 14 16 16 16 19 21 20 19 17 16 16 16 16 17 19 20 21 21 20 17 15 21 22 21 22
4 5 6 3 2 6 8 8 7 9 10 9 7 5 6 5 3 6 9 13 15 18 18 21 23 22 20 21 18 17 14 13 15 15 20 23 24 24 19 19 20 22 23 25
1 2 2 2 2 5 7 5 8 9 11 6 4 10 13 10 1 2 4 7 13 17 20 22 24 25 23 22 21 19 16 14 13 15 17 16 19 23 22 19 21 28 26 25
8 3 2 4 2 5 9 5 6 8 12 8 7 10 5 7 7 7 6 6 9 15 20 20 24 25 25 24 24 25 21 21 21 17 17 16 17 16 17 21 29 29 31 28
5 4 3 4 2 4 9 9 9 7 9 8 10 10 17 11 8 7 8 8 10 8 17 20 22 25 26 29 30 28 29 23 22 24 21 21 18 18 21 28 23 24 31 30
6 8 3 2 6 6 6 19 12 11 10 8 9 8 9 10 8 8 11 12 12 8 8 16 21 23 28 30 30 34 36 28 27 28 29 27 26 23 27 25 25 25 27 28
5 6 6 3 6 7 9 10 11 8 9 14 7 2 3 9 7 9 14 18 15 11 6 9 14 18 23 25 33 36 38 37 37 39 42 30 32 28 31 31 32 29 30 30
8 2 3 9 7 7 5 10 12 12 16 16 6 8 15 2 4 12 17 15 14 14 9 5 11 23 30 32 36 38 34 35 38 37 36 28 33 30 39 37 34 21 19 26
9 10 4 3 9 12 9 12 15 12 7 8 11 15 4 10 15 16 15 17 16 16 18 19 18 22 23 23 25 25 28 26 27 31 23 34 34 26 18 30 27 23 11 7
10 14 10 8 13 7 7 13 9 11 10 13 11 11 18 11 13 16 20 19 15 17 18 25 25 22 22 21 19 22 27 27 27 26 21 31 28 17 17 20 11 11 7 4
9 13 16 17 13 12 14 15 15 18 15 18 19 24 8 9 15 21 21 17 18 20 24 28 24 22 21 19 20 22 23 24 31 31 26 27 32 18 6 4 7 14 16 14
8 11 18 18 16 11 9 12 14 15 20 22 18 20 15 20 22 22 19 19 21 25 27 29 23 20 21 19 19 17 21 19 24 26 28 28 23 21 16 13 5 12 19 20
16 19 21 23 24 19 18 18 20 20 20 23 24 26 24 27 26 21 19 21 18 28 24 25 21 15 17 16 19 19 22 20 22 23 23 22 21 20 24 22 18 11 17 21
14 19 18 21 21 21 23 23 22 23 24 26 29 29 28 27 17 20 17 20 17 25 25 22 18 13 14 16 18 17 23 20 19 22 21 19 19 18 19 20 20 15 22 19
12 22 20 26 23 23 26 26 26 27 27 28 28 27 21 15 18 18 19 20 17 22 23 19 17 16 13 16 18 13 20 15 18 17 18 17 14 15 17 16 18 20 19 19
20 21 23 28 23 24 25 22 20 17 15 16 20 22 21 19 17 17 20 19 18 14 23 17 14 14 13 10 8 9 11 11 11 13 13 11 7 7 13 15 15 15 14 14
22 21 21 25 21 20 25 12 12 14 16 15 16 16 14 15 16 19 20 17 12 16 19 17 15 13 11 6 5 6 6 8 10 12 14 16 14 18 19 16 13 14 12 13
20 21 22 25 24 22 23 14 10 10 14 22 18 13 12 14 16 19 16 18 20 21 16 17 15 12 12 11 14 16 18 15 14 20 18 17 12 16 15 14 13 13 13 15
16 18 20 21 22 20 15 12 10 10 24 5 6 9 12 16 20 16 20 27 29 25 22 18 20 18 13 11 11 7 5 7 11 9 6 6 8 15 14 12 13 14 16 17
14 17 21 22 24 25 21 15 11 12 12 6 10 14 17 20 21 23 28 27 22 22 21 19 23 18 13 12 11 10 10 11 8 6 7 14 17 14 14 14 15 17 17 18
22 21 23 23 24 27 15 8 13 15 14 16 19 21 19 20 21 19 21 16 20 21 16 18 18 15 13 10 11 9 8 7 8 8 11 13 14 15 15 14 14 15 15 15
25 25 25 24 19 12 13 17 19 21 21 21 20 18 19 19 19 16 17 14 18 16 13 14 14 16 10 10 10 11 11 11 10 10 11 12 13 13 12 13 13 14 15 15
22 23 25 22 20 23 23 19 21 21 24 22 18 18 18 20 21 19 19 20 20 15 13 13 14 12 10 11 12 13 12 11 9 10 11 13 13 13 13 13 14 15 14 14
23 20 19 23 23 23 23 22 22 17 18 17 17 17 17 21 19 16 18 16 11 9 6 13 11 11 11 12 13 14 13 11 10 10 11 12 12 13 13 13 12 11 10 14
22 23 25 27 21 22 21 21 21 19 18 19 17 18 19 18 18 13 12 13 18 16 13 12 12 14 13 14 13 14 14 14 11 11 12 11 8 12 11 11 12 11 11 12
Wind_Direction
250 277 223 352 350 24 33 62 357 319 317 281 275 274 278 257 247 236 226 221 234 225 221 215 213 210 211 229 226 212 203 198 200 201 206 212 218 221 225 229 232 240 240 247
257 238 68 95 39 29 351 5 306 29 330 312 293 299 263 236 239 248 235 232 227 226 222 222 218 211 213 228 229 223 213 206 206 208 210 213 217 225 225 236 245 237 244 245
99 84 84 75 333 345 355 2 4 333 306 299 292 331 174 140 235 249 236 239 241 233 228 222 221 219 218 220 237 228 218 216 216 217 216 218 219 213 225 222 240 247 242 245
355 60 93 52 355 323 197 345 338 331 316 186 257 178 56 28 51 2 254 249 239 240 234 233 226 223 224 226 233 220 226 227 225 226 230 233 232 233 227 231 236 243 249 250
132 167 255 297 359 345 1 322 316 316 293 82 268 319 140 135 31 12 13 322 281 246 237 237 245 239 228 228 230 233 230 232 236 230 237 233 234 239 223 236 240 242 248 253
212 216 227 357 291 316 306 295 283 263 264 124 41 342 92 41 25 5 341 336 316 254 235 233 236 242 246 235 233 231 243 235 243 240 230 234 225 230 230 245 252 255 255 259
210 210 219 257 296 287 325 308 277 245 223 65 21 323 354 359 353 7 359 355 350 320 246 237 232 234 243 252 249 237 237 231 240 242 232 234 234 235 235 246 253 259 266 266
205 261 239 203 301 316 315 340 310 313 323 344 290 279 350 328 329 5 357 343 344 353 328 247 238 244 233 245 248 247 248 250 255 242 238 226 233 236 252 259 253 258 262 262
316 82 248 280 270 286 301 280 327 306 275 291 307 348 311 226 253 320 330 326 325 310 332 311 225 223 231 234 253 249 247 258 260 255 234 235 239 265 249 253 264 284 320 278
287 307 281 223 292 273 255 290 297 271 286 293 320 311 298 329 312 314 322 319 307 308 300 320 319 267 259 246 254 239 243 252 254 266 255 253 256 248 271 253 286 275 325 241
271 277 270 274 263 273 274 263 236 269 298 288 283 302 322 322 314 309 317 316 305 303 292 313 309 296 271 260 251 239 242 243 248 261 270 256 249 253 312 358 348 306 269 227
277 276 289 281 281 261 280 274 275 288 290 287 303 300 313 315 321 311 309 310 311 302 309 317 298 296 271 253 252 245 244 246 250 262 260 253 248 252 256 289 299 266 259 256
260 261 281 280 269 243 261 276 271 278 285 280 278 283 299 311 312 306 304 305 312 301 311 313 296 290 279 270 261 249 253 250 249 243 246 252 250 231 233 231 246 287 270 268
256 269 271 278 295 301 291 281 279 278 271 284 286 296 299 304 306 299 301 309 311 314 316 307 293 284 281 272 262 262 258 258 248 241 235 233 243 226 229 240 243 240 267 272
264 263 273 276 280 280 282 280 279 276 276 281 289 295 299 303 301 304 303 307 307 319 328 318 301 277 273 266 258 263 264 244 246 243 233 246 234 225 231 240 249 244 252 258
263 266 275 279 280 279 278 276 276 275 276 279 284 288 294 294 302 296 302 304 305 308 325 326 318 294 275 268 267 263 261 235 236 232 218 207 235 250 257 256 261 250 241 231
261 271 277 278 283 285 279 277 277 281 278 279 292 293 299 299 301 306 305 302 303 306 315 323 330 323 302 278 252 234 227 244 205 217 240 244 228 287 264 232 230 223 227 232
262 266 267 273 283 271 285 267 273 277 284 288 292 296 291 304 305 306 297 294 299 303 306 314 310 307 296 258 208 214 216 230 229 240 209 212 234 273 243 233 228 232 229 236
254 258 265 262 260 274 280 282 272 278 280 300 290 279 293 294 301 300 290 302 305 300 299 301 318 307 299 282 275 274 269 235 237 232 239 249 233 225 228 228 228 229 234 239
246 248 247 258 265 274 286 305 277 288 298 256 291 285 294 299 304 303 303 307 303 289 291 282 305 305 297 287 271 251 248 228 191 189 195 218 242 249 232 228 233 239 242 242
259 249 251 256 260 270 281 258 263 279 287 281 299 301 301 299 294 296 291 298 293 289 288 280 296 281 276 272 261 262 258 223 206 220 237 223 236 231 230 230 236 243 244 246
259 256 255 256 266 270 271 266 264 266 287 291 291 294 297 296 299 299 295 293 303 291 282 291 278 268 269 254 255 242 232 230 227 237 241 240 231 230 232 236 238 239 240 247
258 250 264 266 275 285 277 275 275 286 284 290 288 289 290 298 301 296 289 287 296 282 271 298 288 267 263 244 239 229 226 226 234 248 249 237 230 235 239 241 241 242 242 243
262 263 262 268 263 268 275 279 275 281 286 287 279 278 289 295 296 285 279 287 287 265 267 287 280 262 251 235 228 221 226 230 244 257 244 237 234 236 239 239 238 236 236 234
260 270 265 262 271 279 279 280 280 281 281 278 278 285 288 295 298 287 275 284 255 234 251 280 276 257 246 233 233 236 234 240 257 262 252 246 240 239 241 242 246 247 252 228
257 261 266 269 271 269 275 276 279 279 278 269 276 277 284 291 292 287 271 260 258 261 252 275 275 262 245 246 240 239 240 240 255 269 263 250 231 266 267 247 252 247 252 262